#timestamp,LO_Frequency,Hit 
1504828815.3,286046999.9,N
1504828835.1,286046999.8,N
1504828855.9,286046998.6,N
1504828875.7,286046996.5,N
1504828895.5,286046998.3,N
1504828915.4,286047001.2,N
1504828935.2,286047000.9,N
1504828955.1,286047000.3,N
1504828956.0,286047000.3,N
1504828975.8,286047004.3,N
1504828995.6,286047002.7,N
1504829015.5,286047000.2,N
1504829035.3,286047000.6,N
1504829055.1,286046999.9,N
1504829075.9,286046998.9,N
1504829095.7,286046998.9,N
1504829115.6,286046998.8,N
1504829135.4,286046998.7,N
1504829155.2,286046998.7,N
1504829175.1,286046998.7,N
1504829176.0,286046998.7,N
1504829195.8,286046998.7,N
1504829215.7,286046998.3,N
1504829235.5,286047001.0,N
1504829255.3,286047002.2,N
1504829275.2,286046999.7,N
1504829295.0,286047002.8,N
1504829295.9,286047002.8,N
1504829315.7,286047001.4,N
1504829335.6,286047003.6,N
1504829355.4,286047001.7,N
1504829375.3,286047001.7,N
1504829395.1,286047000.2,N
1504829396.0,286047000.2,N
1504829415.8,286047004.0,N
1504829435.7,286047001.3,N
1504829455.5,286047003.7,N
1504829475.4,286047002.1,N
1504829495.2,286047002.8,N
1504829515.0,286046999.7,N
1504829515.9,286046999.7,N
1504829535.8,286047002.2,N
1504829555.6,286047000.2,N
1504829575.4,286047000.1,N
1504829595.3,286046999.9,N
1504829615.1,286047002.8,N
1504829635.9,286046999.8,N
1504829655.7,286047002.3,N
1504829675.5,286047002.7,N
1504829695.4,286047001.9,N
1504829715.2,286047002.4,N
1504829735.0,286047002.7,N
1504829736.0,286047002.7,N
1504829755.8,286047002.2,N
1504829775.6,286047002.5,N
1504829795.5,286047002.6,N
1504829845.3,286047001.4,E
1504829855.2,286047002.4,N
1504829875.1,286047000.4,P
1504829876.0,286047000.4,N
1504829895.8,286047001.0,N
1504829915.7,286046999.4,N
1504829935.5,286046998.4,N
1504829955.3,286047000.7,N
1504829975.2,286047000.6,N
1504829995.0,286047000.2,N
1504829995.9,286047000.2,N
1504830015.7,286047000.1,N
1504830035.6,286047000.0,N
1504830055.4,286047002.6,N
1504830075.3,286047000.5,N
1504830095.1,286047000.0,N
1504830096.0,286047000.0,N
1504830115.8,286047001.6,N
1504830135.7,286047002.1,N
1504830155.5,286047004.3,P
1504830175.4,286047001.8,N
1504830195.2,286047002.0,N
1504830215.0,286047000.2,N
1504830215.9,286047000.2,N
1504830235.8,286047000.8,N
1504830255.6,286046999.0,N
1504830275.4,286046999.6,N
1504830295.3,286046998.4,N
1504830315.1,286047000.6,N
1504830335.9,286047000.7,N
1504830355.7,286047000.3,N
1504830375.5,286047000.8,N
1504830395.4,286046999.4,N
1504830415.2,286046997.2,N
1504830435.1,286046997.7,N
1504830436.0,286046997.7,N
1504830455.8,286046996.9,N
1504830475.6,286046997.1,N
1504830495.5,286046997.9,N
1504830515.3,286046999.5,N
1504830535.1,286047001.1,N
1504830555.9,286046999.7,N
1504830575.7,286046999.7,N
1504830595.6,286047002.7,N
1504830615.4,286047003.9,N
1504830635.2,286047000.1,N
1504830655.1,286046998.1,N
1504830656.0,286046998.1,N
1504830675.8,286046999.2,N
1504830695.6,286046999.6,N
1504830715.5,286047000.7,N
1504830735.3,286047000.7,N
1504830755.2,286046998.4,N
1504830775.9,286046998.8,N
1504830795.7,286046999.5,N
1504830815.6,286046998.7,N
1504830835.4,286046996.7,N
1504830855.2,286046998.7,N
1504830875.1,286046998.9,N
1504830876.0,286046998.9,N
1504830895.8,286046998.4,N
1504830915.7,286046998.6,N
1504830935.5,286047000.2,N
1504830955.3,286046998.2,N
1504830975.2,286047000.2,N
1504830995.0,286047002.6,N
1504830995.9,286047002.6,N
1504831015.8,286047002.6,N
1504831035.6,286047003.9,N
1504831055.4,286047005.6,P
1504831075.3,286047003.8,N
1504831095.1,286047001.3,N
1504831115.8,286047004.7,N
1504831135.7,286047003.5,N
1504831155.5,286047003.5,N
1504831175.4,286047003.7,N
1504831195.2,286047004.1,N
1504831215.0,286047002.8,N
1504831215.9,286047002.8,N
1504831235.8,286047002.2,N
1504831255.6,286047001.5,N
1504831275.5,286046999.7,N
1504831295.3,286047000.6,N
1504831315.1,286047000.4,N
1504831335.9,286047000.1,N
1504831355.7,286047002.2,N
1504831375.5,286047001.8,N
1504831395.4,286047002.1,N
1504831415.2,286047000.5,N
1504831435.1,286047002.5,N
1504831436.0,286047002.5,N
1504831455.8,286047002.1,N
1504831475.6,286047001.8,N
1504831495.5,286047001.3,N
1504831515.3,286047000.6,N
1504831535.1,286046999.7,N
1504831555.9,286047001.9,N
1504831575.7,286047002.2,N
1504831595.6,286047001.6,N
1504831615.4,286047001.0,N
1504831635.2,286047000.6,N
1504831655.1,286047002.6,N
1504831656.0,286047002.6,N
1504831675.8,286047001.5,N
1504831695.7,286047003.5,P
1504831715.5,286047002.8,P
1504831735.3,286047000.0,N
1504831755.2,286047001.1,N
1504831775.0,286047000.5,N
1504831775.9,286047000.5,N
1504831795.7,286046996.6,N
1504831815.6,286046999.6,N
1504831835.4,286046998.9,N
1504831855.3,286046998.7,N
1504831875.1,286046998.5,N
1504831876.0,286046998.5,N
1504831895.8,286046998.3,N
1504831915.7,286046998.7,N
1504831935.5,286047000.8,N
1504831955.4,286047000.1,N
1504831975.2,286047002.4,N
1504831995.0,286047001.8,N
1504831995.9,286047001.8,N
1504832045.8,286047002.8,E
1504832055.7,286046998.8,N
1504832075.5,286046994.9,P
1504832095.4,286046995.4,N
1504832115.2,286046995.2,N
1504832135.1,286046995.1,P
1504832136.0,286046995.1,P
1504832155.8,286046999.6,N
1504832175.6,286046998.2,N
1504832195.5,286047000.1,N
1504832215.3,286047000.1,N
1504832235.2,286047002.4,N
1504832255.9,286047002.3,N
1504832275.7,286047002.3,N
1504832295.6,286047002.6,N
1504832315.4,286047000.6,N
1504832335.2,286047000.0,N
1504832355.1,286047001.6,N
1504832356.0,286047001.6,N
1504832375.8,286047003.9,N
1504832395.7,286047004.3,N
